[[{"header":{"parameterUnit":"m.s-1","parameterCategory":1,"la1":30.2991,"la2":30.254,"lo1":-89.0895,"lo2":-89.0444,"dy":0.0017,"dx":0.0017,"nx":28,"ny":28,"refTime":"2024-10-03T03:00:00:Z","depth":0,"parameterNumber":2,"parameterNumberName":"U-component_of_WINDS"},"data":[0,0,0,0,0,0,0,0,0,0,0,0,0,0,0,0,0,0,0,0,0,0,0,0,0,0,0,0,0,0,0,0,0,0,0,0,0,0,0,0,0,0,0,0,0,0,0,0,0,0,0,0,0,0,0,0,0,0,-0.0838,-0.0837,0,-0.0756,-0.0755,-0.0754,-0.0719,-0.072,-0.072,-0.072,-0.0637,-0.0634,-0.0632,0,0,0,0,0,0,0,0,0,0,0,0,0,-0.097,-0.0968,-0.0838,-0.0837,-0.0836,-0.0756,-0.0755,-0.0753,-0.0719,-0.072,-0.072,-0.072,-0.0637,-0.0634,-0.0632,0,0,0,0,0,0,0,0,0,0,0,0,0,-0.0903,-0.0967,-0.0838,-0.0809,-0.0806,-0.0756,-0.0754,-0.0753,-0.0719,-0.072,-0.072,-0.072,-0.0638,-0.0635,-0.0631,-0.0604,0,0,-0.062,-0.0619,0,0,0,0,0,0,0,0,-0.0907,-0.0898,-0.0815,-0.0811,-0.0807,-0.0748,-0.077,-0.0703,-0.0719,-0.0752,-0.072,-0.072,-0.0673,-0.0667,-0.0651,-0.06,-0.0597,-0.062,-0.0618,-0.0616,-0.0615,0,0,0,0,0,0,0,-0.0912,-0.0901,-0.0806,-0.0814,-0.0809,-0.0802,-0.0793,-0.0758,-0.0713,-0.0749,-0.0747,-0.0737,-0.0672,-0.0655,-0.0649,-0.0595,-0.062,-0.0617,-0.0615,-0.0613,-0.0522,-0.0522,0,0,0,0,0,0,-0.0921,-0.0906,-0.0808,-0.0803,-0.0859,-0.0799,-0.0789,-0.0767,-0.0713,-0.0705,-0.0737,-0.0736,-0.066,-0.0653,-0.0646,-0.0612,-0.0616,-0.0613,-0.0611,-0.0522,-0.0522,-0.0522,0,0,0,0,0,0,-0.0924,-0.0912,-0.0811,-0.0854,-0.084,-0.0797,-0.0772,-0.0765,-0.0748,-0.0704,-0.0696,-0.0728,-0.066,-0.0651,-0.0615,-0.0609,-0.0611,-0.0608,-0.0523,-0.0522,-0.0522,-0.0545,0,0,0,0,0,0,-0.0927,-0.0913,-0.0901,-0.0854,-0.0838,-0.0781,-0.0772,-0.0763,-0.0742,-0.0739,-0.0693,-0.0685,-0.066,-0.0621,-0.0612,-0.0604,-0.0605,-0.0523,-0.0522,-0.0522,-0.0544,-0.0545,-0.0546,0,0,0,0,0,-0.0932,-0.0911,-0.0901,-0.0889,-0.0822,-0.0781,-0.0772,-0.0743,-0.0741,-0.073,-0.0702,-0.0687,-0.0611,-0.0618,-0.0607,-0.0598,-0.0523,-0.0523,-0.0522,-0.0544,-0.0545,-0.0546,0,0,0,0,0,0,-0.0958,-0.0904,-0.0892,-0.0854,-0.0823,-0.0775,-0.076,-0.0745,-0.0713,-0.0712,-0.0678,-0.0668,-0.0636,-0.0614,-0.0621,-0.0571,-0.0566,-0.0564,-0.0587,-0.0587,-0.0588,-0.0594,-0.0602,0,0,0,0,0,-0.096,-0.093,-0.0884,-0.0856,-0.084,-0.0803,-0.0784,-0.0765,-0.0731,-0.0717,-0.0686,-0.0654,-0.0624,-0.0604,-0.0573,-0.0541,-0.0532,-0.053,-0.0531,-0.0532,-0.053,-0.0514,-0.0514,-0.052,-0.052,-0.052,0,0,-0.0962,-0.0929,-0.0912,-0.086,-0.0833,-0.0805,-0.0792,-0.0761,-0.074,-0.0712,-0.0677,-0.0654,-0.0617,-0.0584,-0.0568,-0.0564,-0.0527,-0.0531,-0.0532,-0.053,-0.0514,-0.0513,-0.0513,-0.0519,-0.0519,-0.0519,0,0,-0.0952,-0.0923,-0.0897,-0.0871,-0.0831,-0.0807,-0.0801,-0.0757,-0.074,-0.0705,-0.0684,-0.066,-0.0607,-0.0582,-0.0562,-0.0548,-0.0533,-0.0539,-0.0542,-0.0527,-0.0527,-0.0526,-0.0523,-0.0522,-0.0537,-0.0537,-0.0537,0,-0.0961,-0.0916,-0.0886,-0.0857,-0.0836,-0.0811,-0.0785,-0.0762,-0.0714,-0.0701,-0.0697,-0.0633,-0.0606,-0.0568,-0.0565,-0.0549,-0.0543,-0.0543,-0.0529,-0.0528,-0.0528,-0.0524,-0.0522,-0.0538,-0.0538,-0.0538,-0.0538,0,-0.0929,-0.0899,-0.0883,-0.0838,-0.0815,-0.0788,-0.0756,-0.0737,-0.0721,-0.0698,-0.0664,-0.0631,-0.0594,-0.0584,-0.0567,-0.0545,-0.0544,-0.0536,-0.053,-0.0529,-0.0525,-0.0523,-0.0539,-0.0539,-0.0539,-0.0538,0,0,-0.0931,-0.0872,-0.0867,-0.0848,-0.0803,-0.078,-0.0754,-0.0718,-0.0704,-0.0672,-0.0651,-0.0609,-0.0601,-0.0579,-0.056,-0.0547,-0.054,-0.054,-0.0539,-0.0543,-0.0516,-0.0523,-0.0522,-0.0531,-0.053,-0.053,-0.052,0,-0.0916,-0.0867,-0.0841,-0.0803,-0.0776,-0.0753,-0.0731,-0.0702,-0.0681,-0.0656,-0.0633,-0.0604,-0.0596,-0.0583,-0.0569,-0.0544,-0.0535,-0.0544,-0.0512,-0.0511,-0.0522,-0.0519,-0.0526,-0.0518,-0.0518,-0.0518,-0.0517,0,-0.0891,-0.0861,-0.0821,-0.0783,-0.0771,-0.0751,-0.0718,-0.0694,-0.0662,-0.0648,-0.0625,-0.0607,-0.0581,-0.0578,-0.0542,-0.055,-0.0535,-0.0522,-0.0521,-0.0516,-0.0514,-0.0516,-0.0514,-0.0513,-0.0514,-0.0515,-0.0515,0,-0.0899,-0.0849,-0.0819,-0.0803,-0.0757,-0.0744,-0.0724,-0.0693,-0.0674,-0.0646,-0.0634,-0.0604,-0.0587,-0.0564,-0.0539,-0.0539,-0.0507,-0.0502,-0.0496,-0.0497,-0.0489,-0.049,-0.0486,-0.048,-0.048,-0.048,-0.048,0,-0.0885,-0.0862,-0.0822,-0.0804,-0.0778,-0.075,-0.0725,-0.0704,-0.0677,-0.0656,-0.0634,-0.0615,-0.0583,-0.056,-0.054,-0.0515,-0.0508,-0.0497,-0.0492,-0.0499,-0.05,-0.0488,-0.0489,-0.0479,-0.0479,-0.0479,-0.0479,0,-0.0889,-0.0861,-0.0827,-0.0787,-0.0777,-0.076,-0.0727,-0.0709,-0.0688,-0.0662,-0.0654,-0.0621,-0.0593,-0.0566,-0.0529,-0.0516,-0.0492,-0.0485,-0.0502,-0.05,-0.0496,-0.0497,-0.0484,-0.0482,-0.0477,-0.0477,-0.0477,0,-0.0882,-0.0864,-0.0823,-0.0807,-0.0788,-0.0762,-0.0744,-0.0716,-0.0698,-0.0663,-0.065,-0.0622,-0.0597,-0.0554,-0.0528,-0.05,-0.0493,-0.0491,-0.0489,-0.0497,-0.0494,-0.0496,-0.0495,-0.0491,-0.0491,-0.0492,-0.0492,0,-0.0874,-0.0861,-0.0835,-0.0805,-0.0784,-0.0759,-0.0733,-0.0722,-0.069,-0.0671,-0.0643,-0.0624,-0.0587,-0.056,-0.0529,-0.0511,-0.0497,-0.0493,-0.049,-0.0497,-0.0509,-0.0504,-0.0505,-0.0493,-0.0493,-0.0493,-0.0493,-0.0493,-0.0872,-0.0856,-0.0826,-0.0798,-0.0776,-0.0754,-0.0736,-0.0713,-0.0689,-0.0657,-0.0643,-0.0615,-0.0587,-0.0545,-0.0528,-0.0507,-0.0503,-0.0499,-0.0498,-0.0497,-0.05,-0.0512,-0.0501,-0.0501,-0.0501,-0.0501,-0.0501,0,-0.0864,-0.0844,-0.0819,-0.0784,-0.0764,-0.0752,-0.0724,-0.0708,-0.0684,-0.0659,-0.0635,-0.0605,-0.0579,-0.0551,-0.0524,-0.0513,-0.0506,-0.0507,-0.0508,-0.0504,-0.0504,-0.0509,-0.0513,-0.0513,-0.0513,-0.0513,-0.0513,-0.0513,-0.0857,-0.083,-0.0815,-0.0778,-0.0758,-0.073,-0.0716,-0.0696,-0.0676,-0.0643,-0.0621,-0.0603,-0.0578,-0.0549,-0.0526,-0.0519,-0.051,-0.0513,-0.0504,-0.0505,-0.0504,-0.0503,-0.0508,-0.0511,-0.0511,-0.0506,-0.0506,-0.0506]},{"header":{"parameterUnit":"m.s-1","parameterCategory":1,"la1":30.2991,"la2":30.254,"lo1":-89.0895,"lo2":-89.0444,"dy":0.0017,"dx":0.0017,"nx":28,"ny":28,"refTime":"2024-10-03T03:00:00:Z","depth":0,"parameterNumber":3,"parameterNumberName":"V-component_of_WINDS"},"data":[0,0,0,0,0,0,0,0,0,0,0,0,0,0,0,0,0,0,0,0,0,0,0,0,0,0,0,0,0,0,0,0,0,0,0,0,0,0,0,0,0,0,0,0,0,0,0,0,0,0,0,0,0,0,0,0,0,0,2.904,2.904,0,2.9027,2.9027,2.9027,2.9002,2.9001,2.9001,2.9,2.8984,2.8984,2.8984,0,0,0,0,0,0,0,0,0,0,0,0,0,2.9038,2.9038,2.904,2.904,2.9039,2.9027,2.9027,2.9027,2.9002,2.9001,2.9001,2.9,2.8984,2.8984,2.8984,0,0,0,0,0,0,0,0,0,0,0,0,0,2.9033,2.9038,2.904,2.9026,2.9024,2.9027,2.9027,2.9027,2.9002,2.9001,2.9,2.9,2.8984,2.8984,2.8984,2.8999,0,0,2.8984,2.8984,0,0,0,0,0,0,0,0,2.9033,2.9033,2.9028,2.9027,2.9025,2.9015,2.902,2.9017,2.9002,2.901,2.9,2.8999,2.8995,2.8994,2.8993,2.8998,2.8998,2.8984,2.8984,2.8984,2.8984,0,0,0,0,0,0,0,2.9034,2.9033,2.9035,2.9028,2.9026,2.9018,2.9017,2.9019,2.9007,2.9009,2.9008,2.9007,2.8994,2.8993,2.8993,2.8997,2.8984,2.8984,2.8984,2.8984,2.901,2.901,0,0,0,0,0,0,2.9037,2.9034,2.9035,2.9034,2.9028,2.9019,2.9017,2.9019,2.9007,2.9004,2.9007,2.9005,2.8993,2.8993,2.8992,2.9006,2.8984,2.8984,2.8984,2.9009,2.901,2.901,0,0,0,0,0,0,2.9037,2.9037,2.9036,2.9034,2.9033,2.902,2.9022,2.9019,2.9018,2.9005,2.9002,2.9009,2.8993,2.8992,2.8997,2.9005,2.8984,2.8985,2.9008,2.9009,2.901,2.9035,0,0,0,0,0,0,2.9037,2.9037,2.9044,2.9034,2.9033,2.9042,2.9023,2.9019,2.9019,2.9016,2.9006,2.9003,2.8992,2.8997,2.8997,2.9004,2.8985,2.9007,2.9009,2.901,2.9033,2.9037,2.904,0,0,0,0,0,2.9037,2.9052,2.9045,2.9045,2.9042,2.9043,2.9042,2.903,2.902,2.9025,2.9016,2.9004,2.9004,2.8998,2.8997,2.9005,2.9007,2.9008,2.901,2.9032,2.9036,2.9039,0,0,0,0,0,0,2.9063,2.905,2.9042,2.9055,2.905,2.9039,2.9046,2.9035,2.9032,2.903,2.9014,2.9012,2.9018,2.9012,2.9005,2.9017,2.9003,2.9005,2.902,2.9024,2.9027,2.9028,2.8985,0,0,0,0,0,2.907,2.9074,2.9062,2.9074,2.9072,2.9059,2.9059,2.905,2.9044,2.9042,2.9033,2.9027,2.9025,2.9024,2.9023,2.9033,2.9028,2.9037,2.9041,2.9043,2.9044,2.9046,2.9049,2.9015,2.9015,2.9015,0,0,2.9085,2.9079,2.9082,2.9079,2.9074,2.9076,2.9058,2.9061,2.9062,2.9042,2.9046,2.9039,2.903,2.9037,2.904,2.9033,2.9052,2.9045,2.9047,2.9047,2.9048,2.9051,2.9054,2.9016,2.9016,2.9016,0,0,2.9113,2.911,2.9117,2.9113,2.9106,2.9097,2.9099,2.9088,2.9083,2.9087,2.9071,2.907,2.9069,2.9063,2.9059,2.9081,2.9069,2.9081,2.9097,2.9099,2.9101,2.9103,2.9109,2.9111,2.9082,2.9083,2.9083,0,2.9132,2.9135,2.9123,2.9126,2.9124,2.9107,2.9113,2.9109,2.9101,2.9099,2.9092,2.9087,2.9081,2.9084,2.9089,2.9088,2.9087,2.9082,2.9102,2.9104,2.9106,2.9111,2.9113,2.9084,2.9084,2.9084,2.9083,0,2.9157,2.916,2.9167,2.916,2.9159,2.9164,2.915,2.915,2.914,2.9131,2.9133,2.9124,2.9119,2.9119,2.911,2.912,2.9115,2.9105,2.9091,2.9111,2.9115,2.9117,2.9086,2.9085,2.9085,2.9085,0,0,2.9202,2.9186,2.9189,2.9184,2.9174,2.9175,2.9178,2.9173,2.9172,2.9167,2.9167,2.9165,2.9154,2.915,2.914,2.9142,2.9156,2.9131,2.913,2.9134,2.9164,2.917,2.9173,2.9148,2.9148,2.9149,2.9164,0,2.9225,2.9231,2.9218,2.9226,2.9226,2.9208,2.921,2.9203,2.9194,2.9192,2.9182,2.9179,2.9167,2.9164,2.9165,2.9154,2.9162,2.9153,2.9146,2.9146,2.9147,2.9175,2.9183,2.9198,2.9165,2.9166,2.9166,0,2.9254,2.925,2.9257,2.9244,2.9244,2.9246,2.9239,2.9238,2.9228,2.9221,2.9216,2.9203,2.9203,2.919,2.9188,2.9182,2.9178,2.9172,2.9172,2.917,2.9156,2.9172,2.9202,2.9204,2.9169,2.9169,2.9168,0,2.9282,2.9278,2.9281,2.9278,2.9264,2.9265,2.9259,2.9249,2.9246,2.9239,2.9236,2.923,2.9226,2.922,2.9204,2.9197,2.9203,2.919,2.9195,2.9195,2.9196,2.9196,2.9225,2.9197,2.9197,2.9197,2.9197,0,2.9308,2.9313,2.9293,2.9295,2.9299,2.9284,2.9288,2.9279,2.927,2.9268,2.9253,2.9251,2.9232,2.9228,2.9216,2.9214,2.9213,2.9206,2.9202,2.9206,2.9207,2.9203,2.9201,2.9197,2.9197,2.9197,2.9197,0,2.934,2.9327,2.9329,2.9315,2.9311,2.9315,2.9301,2.9301,2.9291,2.9289,2.9288,2.9271,2.9265,2.925,2.924,2.9231,2.9232,2.9227,2.9235,2.9233,2.9239,2.9237,2.9264,2.9266,2.9238,2.9239,2.9239,0,2.9356,2.9359,2.9345,2.9343,2.9338,2.9335,2.9332,2.9316,2.9313,2.9301,2.9301,2.9294,2.9287,2.9278,2.9264,2.9255,2.9248,2.9258,2.9247,2.925,2.9246,2.9245,2.9244,2.926,2.9261,2.9261,2.9261,0,2.9387,2.938,2.9376,2.9369,2.9365,2.9359,2.9352,2.9351,2.9333,2.933,2.9323,2.9318,2.9307,2.9299,2.9288,2.928,2.9266,2.9265,2.9265,2.9269,2.9273,2.9269,2.924,2.9264,2.9264,2.9264,2.9264,2.9263,2.9409,2.941,2.94,2.9395,2.9388,2.9381,2.938,2.9369,2.9364,2.9355,2.9345,2.9339,2.9327,2.9311,2.9303,2.9297,2.929,2.9292,2.9292,2.9292,2.9293,2.9275,2.9295,2.9295,2.9295,2.9294,2.9294,0,2.9437,2.9429,2.9425,2.9415,2.9411,2.94,2.9391,2.9387,2.9383,2.9373,2.9366,2.9358,2.9349,2.9334,2.9324,2.9322,2.9315,2.932,2.9319,2.9316,2.93,2.93,2.9325,2.9325,2.9325,2.9325,2.9325,2.9325,2.945,2.945,2.9442,2.9437,2.9429,2.9424,2.9419,2.9412,2.9404,2.9395,2.9388,2.9379,2.9366,2.9355,2.9346,2.9341,2.9337,2.9343,2.9336,2.9321,2.9318,2.9315,2.9315,2.9343,2.9343,2.9353,2.9353,2.9353]}]]